AAL2085 TXKF-KCLT

Flight info

Callsign AAL2085
Flight time N/A
Altitude 32000
Route BORNN1 ENAPI M325 OXANA/N0456F320 AR8 OHPEA DCT TYI DCT RDU DCT SDAIL CHSLY6
Aircraft A320/M-SDE3FGHIRWY/LB1

Departure

Time 2026-05-05 21:55
Airport L.F. Wade International Airport (TXKF)

Arrival

Time N/A
Airport Charlotte Douglas International Airport (KCLT)
Time Latitude Longitude Altitude Speed Heading
2026-05-05 21:40 32.36328 -64.70368 4 ft 0 kts 249°
2026-05-05 21:47 32.36335 -64.70348 6 ft 4 kts 249°
2026-05-05 21:48 32.36345 -64.70319 6 ft 4 kts 236°
2026-05-05 21:48 32.36363 -64.70299 4 ft 4 kts 192°
2026-05-05 21:48 32.36378 -64.70298 7 ft 0 kts 162°
2026-05-05 21:51 32.36364 -64.70292 4 ft 5 kts 156°
2026-05-05 21:51 32.36348 -64.70271 5 ft 3 kts 122°
2026-05-05 21:51 32.36327 -64.70225 4 ft 6 kts 127°
2026-05-05 21:52 32.36267 -64.70159 4 ft 7 kts 89°
2026-05-05 21:52 32.36283 -64.70111 4 ft 9 kts 63°
2026-05-05 21:52 32.36336 -64.69970 4 ft 23 kts 68°
2026-05-05 21:53 32.36393 -64.69805 4 ft 20 kts 67°
2026-05-05 21:53 32.36445 -64.69660 4 ft 18 kts 66°
2026-05-05 21:53 32.36492 -64.69530 4 ft 17 kts 68°
2026-05-05 21:53 32.36535 -64.69407 5 ft 16 kts 67°
2026-05-05 21:54 32.36576 -64.69291 6 ft 15 kts 67°
2026-05-05 21:54 32.36615 -64.69183 4 ft 14 kts 67°
2026-05-05 21:54 32.36621 -64.69112 4 ft 0 kts 105°
2026-05-05 21:54 32.36599 -64.69000 5 ft 48 kts 101°
2026-05-05 21:55 32.36480 -64.68295 7 ft 125 kts 101°
2026-05-05 21:55 32.36267 -64.67062 197 ft 168 kts 101°
2026-05-05 21:55 32.36026 -64.65695 990 ft 172 kts 101°
2026-05-05 21:55 32.35776 -64.64296 1799 ft 177 kts 99°
2026-05-05 21:56 32.35514 -64.62781 2043 ft 199 kts 99°
2026-05-05 21:56 32.35230 -64.61100 2359 ft 219 kts 99°
2026-05-05 21:56 32.34918 -64.59235 2727 ft 242 kts 97°
2026-05-05 21:56 32.35034 -64.57249 3377 ft 248 kts 66°
2026-05-05 21:57 32.36157 -64.55703 4118 ft 256 kts 31°
2026-05-05 21:57 32.37856 -64.54990 4905 ft 264 kts 13°
2026-05-05 21:57 32.39685 -64.54688 5713 ft 268 kts
2026-05-05 21:57 32.41554 -64.54504 6501 ft 272 kts
2026-05-05 21:58 32.43431 -64.54861 7224 ft 276 kts 342°
2026-05-05 21:58 32.45160 -64.55813 7933 ft 281 kts 327°
2026-05-05 21:58 32.46666 -64.57297 8661 ft 284 kts 313°
2026-05-05 21:58 32.48052 -64.58989 9431 ft 287 kts 313°
2026-05-05 21:59 32.49450 -64.60695 10211 ft 291 kts 312°
2026-05-05 21:59 32.50863 -64.62423 10945 ft 293 kts 311°
2026-05-05 21:59 32.52327 -64.64224 11178 ft 315 kts 312°
2026-05-05 21:59 32.53896 -64.66163 11351 ft 336 kts 312°
2026-05-05 22:00 32.55541 -64.68198 11821 ft 345 kts 312°
2026-05-05 22:00 32.57212 -64.70265 12495 ft 349 kts 312°
2026-05-05 22:00 32.58898 -64.72351 13192 ft 351 kts 312°
2026-05-05 22:00 32.60428 -64.74607 13907 ft 350 kts 300°
2026-05-05 22:01 32.61531 -64.77182 14457 ft 353 kts 289°
2026-05-05 22:01 32.62183 -64.80000 14971 ft 356 kts 281°
2026-05-05 22:01 32.62713 -64.82868 15626 ft 356 kts 281°
2026-05-05 22:01 32.63253 -64.85744 16213 ft 359 kts 281°
2026-05-05 22:02 32.63550 -64.87312 16492 ft 361 kts 281°
2026-05-05 22:02 32.64110 -64.90239 17035 ft 365 kts 281°
2026-05-05 22:02 32.64679 -64.93186 17559 ft 369 kts 282°
2026-05-05 22:02 32.65253 -64.96166 18106 ft 372 kts 281°
2026-05-05 22:03 32.65828 -64.99166 18658 ft 375 kts 281°
2026-05-05 22:03 32.66405 -65.02191 19143 ft 377 kts 281°
2026-05-05 22:03 32.66981 -65.05235 19653 ft 379 kts 281°
2026-05-05 22:03 32.67557 -65.08300 20166 ft 381 kts 281°
2026-05-05 22:04 32.68133 -65.11375 20687 ft 383 kts 280°
2026-05-05 22:04 32.68705 -65.14423 21196 ft 384 kts 280°
2026-05-05 22:04 32.69286 -65.17526 21714 ft 386 kts 280°
2026-05-05 22:04 32.69869 -65.20642 22203 ft 388 kts 280°
2026-05-05 22:05 32.70457 -65.23773 22691 ft 390 kts 279°
2026-05-05 22:05 32.71047 -65.26917 23166 ft 391 kts 279°
2026-05-05 22:05 32.71641 -65.30082 23636 ft 393 kts 279°
2026-05-05 22:05 32.72236 -65.33258 24010 ft 395 kts 279°
2026-05-05 22:06 32.72831 -65.36452 24370 ft 397 kts 279°
2026-05-05 22:06 32.73425 -65.39662 24721 ft 399 kts 279°
2026-05-05 22:06 32.74022 -65.42885 25074 ft 401 kts 278°
2026-05-05 22:06 32.74620 -65.46120 25432 ft 401 kts 278°
2026-05-05 22:07 32.75209 -65.49276 26475 ft 381 kts 278°
2026-05-05 22:07 32.75772 -65.52264 27629 ft 361 kts 277°
2026-05-05 22:07 32.76304 -65.55095 28751 ft 343 kts 276°
2026-05-05 22:07 32.76812 -65.57838 29410 ft 338 kts 276°
2026-05-05 22:08 32.77310 -65.60565 29829 ft 338 kts 275°
2026-05-05 22:08 32.77807 -65.63298 30220 ft 339 kts 275°
2026-05-05 22:08 32.78306 -65.66044 30502 ft 341 kts 275°